Weather in Tashara

Russia / Novosibirsk Oblast     55°30′58″N   83°30′16″E
temp.,
°C
wind,
m/s
gust,
m/s
humid.,
%
clouds,
%
prec.,
mm/h
press.,
hPa
HPBL,
m
3 march, wed
wed301:00−15sw229695 0.1 101726
04:00−15ssw229693 0.1 101631
07:00−18ssw229779 0.1 101720
10:00−15ssw239588 0.1 1018151
13:00−11ssw249088 0.1 1018398
16:00−10sw3591100 0.1 1019511
19:00−13ssw3794100 0.1 1020174
22:00−14ssw4109566 0.0 1021282
4 march, thu
thu401:00−14ssw5139280 0.1 1021412
04:00−14ssw6149198 0.0 1020444
07:00−13ssw71592100 0.1 1020535
10:00−10ssw81592100 0.3 1019631
13:00−7ssw81591100 0.8 1019678
16:00−5ssw81493100 0.4 1017761
19:00−5ssw71493100 1.3 1016857
22:00−5ssw71592100 0.6 1016782
5 march, fri
fri501:00−6ssw71588100 0.8 1014647
04:00−6ssw71587100 0.0 1012627
07:00−7ssw7168496 0.0 1011573
10:00−6ssw81684100 0.0 1011691
13:00−4sw81493100 0.5 1010889
16:00−2wsw91585100 0.6 10111581
19:00−5sw71583100 0.6 1015779
22:00−6sw81592100 0.5 10161092
6 march, sat
sat601:00−7sw71491100 0.8 1017874
04:00−6sw61390100 0.1 1018765
07:00−6ssw71490100 0.3 1018722
10:00−5ssw81494100 0.8 1016784
13:00−4ssw91589100 1.6 1015981
16:00−3sw91584100 0.1 10131011
19:00−4sw81685100 0.1 10111009
22:00−4sw91789100 0.5 10091100
7 march, sun
sun701:00−4sw91690100 0.8 1009981
04:00−3sw81594100 0.4 10091034
07:00−7wsw7158293 0.8 1013737
10:00−9wsw7148657 0.0 1015659
13:00−8wsw6118472 0.0 1017578
16:00−7sw5981100 0.0 1018605
19:00−8s3387100 0.0 101776
22:00−4s51293100 0.0 1015517